Location: *
(11.7485°N, 79.7483°E)
Time: 10:51:32
(UTC+00:00)

Cosmos 1464 Rocket - Pass Details

Date: 22 January 2021
Orbit: 953 x 1000 km, 82.9° (Epoch: 24 February)

Event Time Altitude Azimuth Distance (km) Brightness Sun altitude
Rises 00:04:12 0° 201° (SSW) 3,633 7.0 -15.2°
Reaches altitude 10° 00:06:53 10° 209° (SSW) 2,682 6.2 -14.5°
Maximum altitude 00:12:28 37° 275° (W) 1,428 4.4 -13.2°
Drops below altitude 10° 00:18:03 10° 342° (NNW) 2,673 6.0 -11.9°
Sets 00:20:44 0° 350° (N) 3,620 6.7 -11.3°
